Weather History for Concordia, KS

Change the Weather History Date:

Thursday, December 27, 2012

  Actual Average Record
Temperature  
Mean Temperature 21 °F 28 °F  
Max Temperature 29 °F 38 °F 63 °F (1976)
Min Temperature 12 °F 19 °F -6 °F (1924)
Degree Days  
Heating Degree Days 44 37  
Month to date heating degree days 839 937  
Since 1 July heating degree days 1869 2029  
Cooling Degree Days 0 0  
Month to date cooling degree days 0 0  
Year to date cooling degree days 1643 1349  
Moisture  
Dew Point 17 °F    
Average Humidity 76    
Maximum Humidity 88    
Minimum Humidity 63    
Precipitation  
Precipitation T in 0.03 in 0.72 in (1966)
Month to date precipitation 0.45 0.78  
Year to date precipitation 23.53 27.82  
Snow  
Snow T in 0.10 in 12.20 in (1966)
Month to date snowfall 1.0 3.2  
Year to date snowfall 6.8 19.6  
Since 1 July snowfall 1.0 5.9  
Snow Depth 0.00 in    
Sea Level Pressure  
Sea Level Pressure 29.99 in    
Wind  
Wind Speed 8 mph (East)    
Max Wind Speed 21 mph    
Max Gust Speed 26 mph    
Visibility 9 miles    
Events      
T = Trace of Precipitation, MM = Missing Value Source: NWS Daily Summary

Daily Weather History Graph

Daily Weather History Graph

Search for Another Location

Airport:

Trip Planner

Search our weather history database for the weather conditions in past years. The results will help you decide how hot, cold, wet, or windy it might be!

Date:

Astronomy

Dec. 27, 2012 Rise Set
Actual Time 7:50 AM CST 5:13 PM CST
Civil Twilight 7:19 AM CST 5:44 PM CST
Nautical Twilight 6:46 AM CST 6:17 PM CST
Astronomical Twilight 6:13 AM CST 6:50 PM CST
Moon 4:58 PM CST (12/27) 7:02 AM CST (12/27)
Length of Visible Light 10h 24m
Length of Day
9h 23m
Full, 100% of the Moon is Illuminated
Dec 27
Full
Dec 28
Full
Jan 4
Last Quarter
Jan 11
New
Jan 18
First Quarter

Hourly Weather History & Observations

Time (CST) Temp. Windchill Dew Point Humidity Pressure Visibility Wind Dir Wind Speed Gust Speed Precip Events Conditions
12:55 AM 12.9 °F 1.6 °F 8.1 °F 81% 30.10 in 10.0 mi ESE 8.1 mph - N/A   Partly Cloudy
1:55 AM 12.0 °F 0.5 °F 8.1 °F 84% 30.09 in 10.0 mi ESE 8.1 mph - N/A   Clear
2:55 AM 14.0 °F 5.1 °F 10.0 °F 84% 30.10 in 10.0 mi East 5.8 mph - N/A   Clear
3:55 AM 17.1 °F 5.8 °F 12.0 °F 81% 30.09 in 10.0 mi ESE 9.2 mph - N/A   Overcast
4:55 AM 18.0 °F 4.2 °F 12.9 °F 81% 30.05 in 10.0 mi ESE 13.8 mph - 0.00 in   Overcast
5:55 AM 19.9 °F 5.7 °F 14.0 °F 78% 30.03 in 10.0 mi SE 16.1 mph - 0.00 in   Overcast
6:55 AM 19.9 °F 6.2 °F 14.0 °F 78% 30.02 in 10.0 mi ESE 15.0 mph - N/A   Overcast
7:55 AM 19.9 °F 7.3 °F 15.1 °F 81% 30.01 in 10.0 mi ESE 12.7 mph - N/A   Mostly Cloudy
8:55 AM 19.9 °F 5.7 °F 15.1 °F 81% 30.00 in 10.0 mi ESE 16.1 mph - N/A   Partly Cloudy
9:55 AM 23.0 °F 9.2 °F 17.1 °F 78% 30.01 in 10.0 mi SE 17.3 mph 24.2 mph N/A   Mostly Cloudy
10:55 AM 27.0 °F 16.1 °F 18.0 °F 69% 30.01 in 10.0 mi SSE 12.7 mph - N/A   Mostly Cloudy
11:05 AM 28.4 °F 17.5 °F 17.6 °F 64% 29.94 in 10.0 mi SE 13.8 mph - N/A   Mostly Cloudy
11:19 AM 28.4 °F 18.0 °F 17.6 °F 64% 29.93 in 10.0 mi SE 12.7 mph - N/A   Mostly Cloudy
11:55 AM 28.0 °F 19.3 °F 18.0 °F 66% 29.97 in 10.0 mi SSE 9.2 mph - N/A   Mostly Cloudy
12:55 PM 28.9 °F 22.8 °F 18.0 °F 64% 29.94 in 10.0 mi Variable 5.8 mph - N/A   Overcast
1:55 PM 28.9 °F 22.8 °F 18.0 °F 64% 29.93 in 10.0 mi SSE 5.8 mph - N/A   Overcast
2:55 PM 28.9 °F - 18.0 °F 64% 29.93 in 10.0 mi Calm Calm - N/A   Overcast
3:55 PM 28.9 °F - 18.0 °F 64% 29.93 in 10.0 mi Calm Calm - N/A   Overcast
4:55 PM 28.9 °F - 19.0 °F 67% 29.95 in 10.0 mi Calm Calm - N/A   Overcast
5:55 PM 26.1 °F 20.5 °F 19.9 °F 78% 29.97 in 5.0 mi NE 4.6 mph - N/A   Haze
6:47 PM 26.6 °F 19.1 °F 19.4 °F 74% 29.93 in 9.0 mi NNE 6.9 mph - N/A   Overcast
6:55 PM 26.1 °F 20.5 °F 19.9 °F 78% 29.98 in 9.0 mi NNE 4.6 mph - N/A   Overcast
7:05 PM 26.6 °F 20.0 °F 19.4 °F 74% 29.93 in 9.0 mi NNE 5.8 mph - N/A   Overcast
7:55 PM 25.0 °F 18.1 °F 19.9 °F 81% 29.99 in 9.0 mi NNE 5.8 mph - N/A   Overcast
8:55 PM 25.0 °F 19.3 °F 19.9 °F 81% 29.99 in 9.0 mi North 4.6 mph - N/A   Overcast
9:55 PM 25.0 °F 20.7 °F 19.9 °F 81% 30.00 in 8.0 mi NNE 3.5 mph - N/A   Overcast
10:55 PM 25.0 °F 20.7 °F 19.9 °F 81% 30.01 in 8.0 mi NNW 3.5 mph - N/A   Overcast
11:55 PM 24.1 °F 18.2 °F 19.9 °F 84% 30.01 in 7.0 mi NNW 4.6 mph - N/A   Overcast